Location: Newark
(43.7333°N, 7.4000°E)
Time: 01:51:09
(UTC+00:00)

ISS - Visible Passes

Search period start: 30 September 2020 00:00
Search period end: 10 October 2020 00:00
Orbit: 419 x 421 km, 51.6° (Epoch: 30 September)

Date Brightness Start Highest point End Pass type
(mag) Time Alt. Az. Time Alt. Az. Time Alt. Az.
30 Sep -2.2 18:16:33 10° NW 18:19:25 25° NNE 18:21:08 17° ENE visible
30 Sep -0.8 19:53:12 10° WNW 19:54:06 17° WNW 19:54:06 17° WNW visible
01 Oct -3.0 19:05:56 10° NW 19:08:39 47° NNW 19:08:39 47° NNW visible
02 Oct -3.0 18:18:41 10° NW 18:21:53 40° NNE 18:23:14 27° ENE visible
02 Oct -0.5 19:55:36 10° WNW 19:56:12 14° WNW 19:56:12 14° WNW visible
03 Oct -2.8 19:08:07 10° WNW 19:10:50 47° W 19:10:50 47° W visible
04 Oct -3.8 18:20:45 10° WNW 18:24:08 89° N 18:25:33 32° ESE visible
05 Oct -3.6 17:33:26 10° NW 17:36:46 58° NNE 17:40:06 10° ESE visible
05 Oct -1.6 19:10:46 10° W 19:13:21 20° SW 19:13:21 20° SW visible
06 Oct -2.3 18:23:03 10° WNW 18:26:08 33° SW 18:28:16 16° SSE visible
07 Oct -3.1 17:35:33 10° WNW 17:38:51 55° SW 17:42:08 10° SE visible
08 Oct -0.8 18:26:22 10° WSW 18:27:52 12° SW 18:29:20 10° SSW visible
09 Oct -1.2 17:38:07 10° W 17:40:41 20° SW 17:43:13 10° S visible
